Starlink 33832

operational
NORAD ID: 63637 Int'l Des: 2025-083 Owner: SPXS Country: US Constellation: starlink
LEOCIRCULAR

About Starlink 33832

Description loading...

Live Position

Loading 3D Globe...

Upcoming Passes

Altitude History

Altitude vs Time

uPlot chart will show altitude changes over time

Two-Line Element Set

1 63637U 25083D 25351.32324250 .00024938 00000-0 91213-3 0 9995
2 63637 42.9995 110.0610 0000730 277.3683 82.7086 15.27599599 37473
Epoch: Dec 17, 2025 • Age: 19 hours

Current Status

Altitude 483.8 km
Velocity 7.63 km/s
Sub-Earth Point 30.26°N, 15.15°E
Launch Date Apr 25, 2025
Age 0.6 years
Type internet

Technical Details

Classification Payload
Mass 575.00 kg
Dry Mass 530.00 kg
Total Mass 575.00 kg
Length 0.30 m
Diameter 4.10 m
Span 29.00 m
Shape Box + pan
Manufacturer SPXS
Bus Type Starlink V2MO
Phase Status In Orbit
Owner/State SPXS/US

Large Constellations

Loading constellations...